{"data":{"norad_id":39166,"intl_designator":"2013-023A","name":"GPS BIIF-4  (PRN 27)","alt_names":[],"object_type":"PAYLOAD","status":"ACTIVE","operator":null,"country":"US","launch_date":"2013-05-15","launch_site_code":"AFETR","launch_vehicle":null,"mission":null,"orbit_class":"UNKNOWN","rcs_meters":11,"size_class":null,"mass_kg":null,"dimensions":null,"purposes":["earth_obs","nav"],"wikipedia_slug":null,"has_3d_model":false,"image_url":null,"decayed_at":null,"tle_current":{"epoch":"2026-05-24T17:59:53.308320Z","epoch_age_seconds":99696,"freshness":"FRESH","line1":"1 39166U 13023A   26144.74992255 -.00000075  00000+0  00000+0 0  9995","line2":"2 39166  54.5230 269.9280 0141730  50.9138 310.3242  2.00563616 95417","mean_motion":2.00563616,"eccentricity":0.014173,"inclination_deg":54.523,"raan_deg":269.928,"arg_perigee_deg":50.9138,"mean_anomaly_deg":310.3242,"bstar":0,"rev_number":9541,"period_min":717.9766842656,"perigee_km":19805.769963516,"apogee_km":20558.649552721,"semimajor_km":26560.346758119,"source":"CELESTRAK","updated_at":"2026-05-25T13:38:23.731592Z"}}}